MST,Max TemperatureF,Mean TemperatureF,Min TemperatureF,Max Dew PointF,MeanDew PointF,Min DewpointF,Max Humidity, Mean Humidity, Min Humidity, Max Sea Level PressureIn, Mean Sea Level PressureIn, Min Sea Level PressureIn, Max VisibilityMiles, Mean VisibilityMiles, Min VisibilityMiles, Max Wind SpeedMPH, Mean Wind SpeedMPH, Max Gust SpeedMPH,PrecipitationIn, CloudCover, Events, WindDirDegrees
2012-11-1,73,54,35,19,14,10,38,23,12,30.23,30.14,30.05,10,10,7,8,4,,0.00,0,,95
2012-11-2,72,54,37,21,15,9,33,22,13,30.16,30.09,30.03,10,10,4,9,4,,0.00,2,,20
2012-11-3,69,56,42,25,21,15,36,27,18,30.23,30.17,30.10,10,10,7,13,6,,0.00,1,,322
2012-11-4,71,52,34,22,14,7,40,24,12,30.33,30.27,30.21,10,10,10,10,4,,0.00,0,,352
2012-11-5,70,53,36,19,14,7,31,22,14,30.37,30.29,30.22,10,10,10,9,2,,0.00,0,,345
2012-11-6,72,54,36,26,21,13,48,30,16,30.35,30.27,30.22,10,10,7,9,4,,0.00,0,,336
2012-11-7,73,54,34,23,19,15,46,29,14,30.29,30.19,30.09,10,10,5,9,4,,0.00,0,,280
2012-11-8,68,51,34,25,20,14,44,29,17,30.13,30.05,29.97,10,10,7,13,5,16,0.00,0,,197
2012-11-9,64,52,41,50,34,18,83,53,32,30.04,29.95,29.83,10,10,7,20,4,24,0.11,4,Rain,169
2012-11-10,57,44,32,42,31,18,75,56,35,29.93,29.82,29.73,10,10,10,28,14,34,0.01,5,,250
2012-11-11,44,34,22,27,13,0,83,46,16,30.39,30.16,29.94,10,10,10,25,10,36,0.00,1,,295
2012-11-12,48,32,16,9,6,2,65,36,15,30.48,30.40,30.32,10,10,10,10,4,,0.00,0,,339
2012-11-13,56,36,17,9,5,0,57,30,14,30.37,30.31,30.24,10,10,10,12,4,,0.00,0,,328
2012-11-14,57,40,23,14,10,5,49,32,17,30.40,30.30,30.21,10,10,10,9,4,,0.00,0,,333
2012-11-15,61,43,25,16,11,7,50,31,15,30.34,30.29,30.24,10,10,10,9,4,,0.00,0,,326
2012-11-16,63,50,38,23,17,13,37,29,16,30.36,30.28,30.20,10,10,10,10,6,,0.00,3,,234
2012-11-17,59,44,30,23,18,12,48,35,23,30.30,30.22,30.16,10,10,10,8,4,,0.00,1,,264
2012-11-18,66,52,39,44,34,20,92,56,20,30.24,30.18,30.12,10,10,7,13,4,18,0.00,4,Rain,242
2012-11-19,62,46,30,34,27,20,91,53,27,30.37,30.31,30.24,10,10,10,7,3,,0.00,0,,8
2012-11-20,62,45,28,22,17,14,65,37,18,30.39,30.31,30.25,10,10,10,9,4,,0.00,0,,352
2012-11-21,56,44,33,21,16,11,47,35,24,30.29,30.21,30.14,10,10,10,8,3,,0.00,2,,314
2012-11-22,64,45,26,27,21,15,64,40,23,30.35,30.22,30.16,10,10,10,10,4,,0.00,0,,180
2012-11-23,56,43,30,25,21,12,67,44,28,30.54,30.44,30.36,10,10,10,13,4,12,0.00,0,,318
2012-11-24,58,40,23,23,19,13,69,45,25,30.41,30.27,30.14,10,10,10,9,4,,0.00,0,,325
2012-11-25,63,44,24,21,17,12,62,37,18,30.15,30.06,29.97,10,10,10,12,3,,0.00,0,,171
2012-11-26,61,45,29,23,18,14,55,35,21,30.34,30.17,30.04,10,10,7,10,5,,0.00,0,,336
2012-11-27,56,40,23,24,20,11,79,49,27,30.44,30.35,30.30,10,10,10,8,3,,0.00,0,,343
2012-11-28,62,43,24,22,17,13,63,40,20,30.39,30.32,30.21,10,10,10,8,4,,0.03,0,Thunderstorm,339
2012-11-29,54,34,30,23,18,13,48,40,30,30.25,30.22,30.18,10,9,7,7,5,,0.00,0,,345
2012-11-30,64,51,36,28,22,18,52,34,22,30.19,30.15,30.12,10,10,10,9,3,,0.00,0,,83